OYAJE EKVH-EKVH

Flight info

Callsign OYAJE
Flight time N/A
Altitude 3000
Route EKVH
Aircraft C152/M-V/N

Departure

Time 2026-04-14 14:45
Airport Vesthimmerland Airfield (EKVH)

Arrival

Time N/A
Airport Vesthimmerland Airfield (EKVH)
Time Latitude Longitude Altitude Speed Heading
2026-04-14 14:35 56.84711 9.46571 108 ft 0 kts 94°
2026-04-14 14:41 56.84708 9.46577 107 ft 3 kts 160°
2026-04-14 14:41 56.84667 9.46533 109 ft 10 kts 198°
2026-04-14 14:41 56.84595 9.46448 106 ft 15 kts 279°
2026-04-14 14:42 56.84637 9.46262 111 ft 18 kts 292°
2026-04-14 14:42 56.84676 9.46024 115 ft 21 kts 285°
2026-04-14 14:42 56.84723 9.45746 114 ft 26 kts 288°
2026-04-14 14:42 56.84778 9.45421 118 ft 27 kts 289°
2026-04-14 14:43 56.84827 9.45173 124 ft 6 kts 252°
2026-04-14 14:43 56.84818 9.45168 126 ft 0 kts 131°
2026-04-14 14:44 56.84814 9.45204 124 ft 12 kts 105°
2026-04-14 14:44 56.84730 9.45716 115 ft 68 kts 105°
2026-04-14 14:44 56.84557 9.46626 245 ft 78 kts 120°
2026-04-14 14:45 56.84317 9.47508 482 ft 81 kts 118°
2026-04-14 14:45 56.84024 9.48349 766 ft 70 kts 175°
2026-04-14 14:45 56.83662 9.47721 806 ft 85 kts 224°
2026-04-14 14:45 56.83149 9.47163 967 ft 84 kts 212°
2026-04-14 14:46 56.82636 9.46754 1198 ft 81 kts 199°
2026-04-14 14:46 56.82063 9.46646 1331 ft 86 kts 188°
2026-04-14 14:46 56.81457 9.46621 1539 ft 85 kts 186°
2026-04-14 14:46 56.80856 9.46627 1694 ft 88 kts 185°
2026-04-14 14:47 56.80235 9.46649 1809 ft 91 kts 187°
2026-04-14 14:47 56.79585 9.46627 1864 ft 95 kts 187°
2026-04-14 14:47 56.78914 9.46615 1945 ft 96 kts 186°
2026-04-14 14:47 56.78243 9.46595 2020 ft 95 kts 188°
2026-04-14 14:48 56.77576 9.46532 2060 ft 98 kts 189°
2026-04-14 14:48 56.76910 9.46446 2159 ft 96 kts 190°
2026-04-14 14:48 56.76244 9.46386 2253 ft 96 kts 187°
2026-04-14 14:48 56.75551 9.46333 2245 ft 101 kts 189°
2026-04-14 14:49 56.74841 9.46239 2234 ft 102 kts 191°
2026-04-14 14:49 56.74138 9.46107 2254 ft 101 kts 193°
2026-04-14 14:49 56.73434 9.45919 2231 ft 102 kts 198°
2026-04-14 14:49 56.72745 9.45628 2234 ft 101 kts 199°
2026-04-14 14:50 56.72054 9.45381 2229 ft 102 kts 195°
2026-04-14 14:50 56.71342 9.45209 2237 ft 102 kts 192°
2026-04-14 14:50 56.70631 9.45123 2250 ft 104 kts 188°
2026-04-14 14:50 56.69906 9.45083 2252 ft 104 kts 188°
2026-04-14 14:51 56.69184 9.45016 2258 ft 104 kts 191°
2026-04-14 14:51 56.68474 9.44857 2278 ft 102 kts 195°
2026-04-14 14:51 56.67769 9.44704 2321 ft 102 kts 194°
2026-04-14 14:51 56.67055 9.44554 2317 ft 104 kts 193°
2026-04-14 14:52 56.66332 9.44440 2377 ft 104 kts 192°
2026-04-14 14:52 56.65608 9.44298 2390 ft 105 kts 194°
2026-04-14 14:52 56.64882 9.44135 2390 ft 105 kts 194°
2026-04-14 14:52 56.64157 9.43950 2376 ft 106 kts 194°
2026-04-14 14:53 56.63427 9.43795 2404 ft 104 kts 195°
2026-04-14 14:53 56.62709 9.43625 2402 ft 105 kts 195°
2026-04-14 14:53 56.61988 9.43443 2390 ft 105 kts 196°
2026-04-14 14:53 56.61266 9.43264 2385 ft 105 kts 196°
2026-04-14 14:54 56.60539 9.43075 2357 ft 106 kts 196°
2026-04-14 14:54 56.59808 9.42893 2374 ft 106 kts 195°
2026-04-14 14:54 56.59074 9.42712 2367 ft 106 kts 196°
2026-04-14 14:54 56.58344 9.42492 2367 ft 105 kts 197°
2026-04-14 14:55 56.57622 9.42260 2338 ft 107 kts 198°
2026-04-14 14:55 56.56897 9.41989 2310 ft 106 kts 202°
2026-04-14 14:55 56.56154 9.41661 2061 ft 119 kts 198°
2026-04-14 14:55 56.55311 9.41412 1719 ft 125 kts 192°
2026-04-14 14:56 56.53599 9.41247 1335 ft 116 kts 191°
2026-04-14 14:56 56.52789 9.41201 1255 ft 114 kts 189°
2026-04-14 14:56 56.52023 9.41138 1245 ft 108 kts 191°
2026-04-14 14:57 56.51271 9.41017 1199 ft 109 kts 192°
2026-04-14 14:57 56.50526 9.40938 1252 ft 106 kts 190°
2026-04-14 14:57 56.49789 9.40865 1288 ft 107 kts 191°
2026-04-14 14:57 56.49068 9.40782 1348 ft 105 kts 192°
2026-04-14 14:58 56.48351 9.40653 1402 ft 103 kts 195°
2026-04-14 14:58 56.47616 9.40607 1400 ft 109 kts 178°
2026-04-14 14:58 56.46878 9.40947 1425 ft 110 kts 174°
2026-04-14 14:58 56.46122 9.41237 1406 ft 112 kts 177°
2026-04-14 14:59 56.45352 9.41472 1383 ft 113 kts 179°
2026-04-14 14:59 56.44577 9.41646 1359 ft 112 kts 182°
2026-04-14 14:59 56.43793 9.41758 1273 ft 113 kts 185°
2026-04-14 14:59 56.43008 9.41803 1176 ft 114 kts 171°
2026-04-14 15:00 56.42470 9.42817 936 ft 108 kts 124°
2026-04-14 15:00 56.42140 9.43842 851 ft 85 kts 126°
2026-04-14 15:00 56.41768 9.44633 694 ft 86 kts 158°
2026-04-14 15:00 56.41287 9.45062 644 ft 72 kts 169°
2026-04-14 15:01 56.40834 9.45018 502 ft 65 kts 210°
2026-04-14 15:01 56.40453 9.44737 449 ft 48 kts 212°
2026-04-14 15:01 56.40275 9.44329 342 ft 50 kts 290°
2026-04-14 15:01 56.40403 9.43777 280 ft 47 kts 278°
2026-04-14 15:02 56.40512 9.43219 272 ft 47 kts 287°
2026-04-14 15:02 56.40640 9.42683 252 ft 45 kts 290°
2026-04-14 15:02 56.40749 9.42161 211 ft 46 kts 286°
2026-04-14 15:02 56.40863 9.41618 122 ft 46 kts 283°
2026-04-14 15:03 56.40960 9.41184 96 ft 27 kts 286°
2026-04-14 15:03 56.41010 9.40952 95 ft 14 kts 298°
2026-04-14 15:03 56.41070 9.40972 98 ft 9 kts 63°
2026-04-14 15:03 56.41094 9.41054 96 ft 5 kts 63°
2026-04-14 15:04 56.41105 9.41091 94 ft 3 kts 60°
2026-04-14 15:04 56.41103 9.41111 94 ft 0 kts 169°
2026-04-14 15:09 56.41080 9.41114 95 ft 13 kts 185°
2026-04-14 15:09 56.40994 9.41099 96 ft 11 kts 159°
2026-04-14 15:09 56.40953 9.41223 95 ft 13 kts 112°
2026-04-14 15:09 56.40912 9.41458 89 ft 23 kts 122°
2026-04-14 15:10 56.40888 9.41475 92 ft 0 kts 294°
2026-04-14 15:10 56.40888 9.41472 92 ft 1 kts 274°
2026-04-14 15:10 56.40888 9.41466 91 ft 0 kts 260°
2026-04-14 15:11 56.40888 9.41461 91 ft 2 kts 284°
2026-04-14 15:11 56.40953 9.41163 94 ft 49 kts 287°
2026-04-14 15:11 56.41078 9.40472 216 ft 59 kts 267°
2026-04-14 15:11 56.40757 9.40040 325 ft 70 kts 200°
2026-04-14 15:12 56.40306 9.40197 506 ft 83 kts 133°
2026-04-14 15:12 56.40170 9.41373 520 ft 104 kts 103°
2026-04-14 15:12 56.39981 9.42694 527 ft 117 kts 111°
2026-04-14 15:12 56.39695 9.44067 577 ft 114 kts 114°
2026-04-14 15:13 56.39761 9.45443 693 ft 110 kts 73°
2026-04-14 15:13 56.39988 9.46759 799 ft 111 kts 69°
2026-04-14 15:13 56.40251 9.48046 1004 ft 105 kts 66°
2026-04-14 15:13 56.40539 9.49267 1165 ft 109 kts 61°
2026-04-14 15:14 56.40858 9.50507 1340 ft 109 kts 63°
2026-04-14 15:14 56.41102 9.51802 1515 ft 109 kts 74°
2026-04-14 15:14 56.41274 9.53218 1496 ft 122 kts 76°
2026-04-14 15:14 56.41457 9.54699 1539 ft 121 kts 77°
2026-04-14 15:15 56.41634 9.56169 1554 ft 121 kts 75°
2026-04-14 15:15 56.41860 9.57670 1503 ft 126 kts 69°
2026-04-14 15:15 56.42128 9.59149 1542 ft 122 kts 68°
2026-04-14 15:15 56.42397 9.60519 1762 ft 108 kts 68°
2026-04-14 15:16 56.42636 9.61756 2047 ft 92 kts 68°
2026-04-14 15:16 56.42799 9.62767 1930 ft 82 kts 90°
2026-04-14 15:16 56.42519 9.63566 1604 ft 75 kts 157°
2026-04-14 15:16 56.42047 9.63928 1155 ft 75 kts 178°
2026-04-14 15:17 56.41672 9.63566 581 ft 64 kts 250°
2026-04-14 15:17 56.41529 9.62862 233 ft 56 kts 253°
2026-04-14 15:17 56.41448 9.62362 181 ft 25 kts 257°
2026-04-14 15:17 56.41439 9.62279 175 ft 0 kts 262°